Burlington, IA

8:37 PM CDT on April 21, 2018 (GMT -0500)
Burlington Regional

Weather History for KBRL - March, 2012

Change the Weather History Date:

Tuesday, March 6, 2012

  Actual Average Record
Temperature  
Mean Temperature 55 °F 37 °F  
Max Temperature 72 °F 46 °F 72 °F (2005)
Min Temperature 37 °F 28 °F -8 °F (1960)
Degree Days  
Heating Degree Days 10 28  
Month to date heating degree days 173 174  
Since 1 July heating degree days 4124 4552  
Cooling Degree Days 0 0  
Month to date cooling degree days 0 0  
Year to date cooling degree days 0 0  
Growing Degree Days 4 (Base 50)    
Moisture  
Dew Point 32 °F    
Average Humidity 45    
Maximum Humidity 64    
Minimum Humidity 25    
Precipitation  
Precipitation 0.00 in 0.08 in 0.92 in (1961)
Month to date precipitation 0.26 0.51  
Year to date precipitation 1.93 3.37  
Sea Level Pressure  
Sea Level Pressure 29.90 in    
Wind  
Wind Speed 19 mph (South)    
Max Wind Speed 33 mph    
Max Gust Speed 45 mph    
Visibility 10 miles    
Events      
T = Trace of Precipitation, MM = Missing Value Source: NWS Daily Summary

Daily Weather History Graph

Daily Weather History Graph

Search for Another Location

Airport or City:

Astronomy

Mar. 06, 2012 Rise Set
Actual Time 6:29 AM CST 6:01 PM CST
Civil Twilight 6:02 AM CST 6:29 PM CST
Nautical Twilight 5:30 AM CST 7:01 PM CST
Astronomical Twilight 4:59 AM CST 7:33 PM CST
Moon 4:28 PM CST (3/6) 5:06 AM CST (3/6)
Length of Visible Light 12h 26m
Length of Day
11h 32m
Waxing Gibbous, 96% of the Moon is Illuminated
Mar 6
Waxing Gibbous
Mar 8
Full
Mar 14
Last Quarter
Mar 22
New
Mar 30
First Quarter

Hourly Weather History & Observations

Time (CST) Temp. Windchill Dew Point Humidity Pressure Visibility Wind Dir Wind Speed Gust Speed Precip Events Conditions
12:53 AM 37.0 °F 28.5 °F 26.1 °F 65% 30.07 in 10.0 mi SSE 13.8 mph - N/A   Clear
1:53 AM 37.0 °F 28.9 °F 26.1 °F 65% 30.05 in 10.0 mi SSE 12.7 mph - N/A   Clear
2:53 AM 37.9 °F 28.9 °F 27.0 °F 65% 30.02 in 10.0 mi South 16.1 mph - N/A   Clear
3:53 AM 37.9 °F 28.5 °F 27.0 °F 65% 29.99 in 10.0 mi South 17.3 mph 25.3 mph N/A   Clear
4:53 AM 39.9 °F 30.8 °F 27.0 °F 60% 29.98 in 10.0 mi South 18.4 mph 27.6 mph N/A   Clear
5:53 AM 39.9 °F 31.4 °F 28.0 °F 63% 29.97 in 10.0 mi South 16.1 mph - N/A   Clear
6:53 AM 42.1 °F 34.2 °F 28.9 °F 60% 29.96 in 10.0 mi South 16.1 mph 24.2 mph N/A   Clear
7:53 AM 45.0 °F 37.6 °F 30.0 °F 56% 29.96 in 10.0 mi South 17.3 mph - N/A   Clear
8:53 AM 51.1 °F - 33.1 °F 50% 29.94 in 10.0 mi SSW 20.7 mph 32.2 mph N/A   Clear
9:53 AM 57.0 °F - 37.0 °F 47% 29.91 in 10.0 mi SSW 26.5 mph 33.4 mph N/A   Clear
10:53 AM 62.1 °F - 39.0 °F 43% 29.89 in 10.0 mi SSW 20.7 mph 34.5 mph N/A   Clear
11:53 AM 66.0 °F - 39.9 °F 38% 29.87 in 10.0 mi SSW 20.7 mph 31.1 mph N/A   Clear
12:53 PM 70.0 °F - 37.9 °F 31% 29.84 in 10.0 mi SSW 24.2 mph 35.7 mph N/A   Clear
1:53 PM 71.1 °F - 36.0 °F 28% 29.82 in 10.0 mi SSW 28.8 mph 40.3 mph N/A   Clear
2:53 PM 71.1 °F - 35.1 °F 27% 29.80 in 10.0 mi South 17.3 mph 26.5 mph N/A   Clear
3:53 PM 72.0 °F - 33.1 °F 24% 29.79 in 10.0 mi SSW 21.9 mph 40.3 mph N/A   Clear
4:53 PM 69.8 °F - 32.0 °F 25% 29.79 in 10.0 mi South 18.4 mph 29.9 mph N/A   Clear
5:53 PM 66.0 °F - 30.0 °F 26% 29.80 in 10.0 mi SSW 20.7 mph 29.9 mph N/A   Clear
6:53 PM 63.0 °F - 30.0 °F 29% 29.81 in 10.0 mi South 15.0 mph 21.9 mph N/A   Clear
7:53 PM 61.0 °F - 30.9 °F 32% 29.83 in 10.0 mi South 16.1 mph 25.3 mph N/A   Clear
8:53 PM 61.0 °F - 33.1 °F 35% 29.85 in 10.0 mi SSW 17.3 mph 25.3 mph N/A   Clear
9:53 PM 59.0 °F - 35.1 °F 41% 29.86 in 10.0 mi South 17.3 mph 24.2 mph N/A   Clear
10:53 PM 60.1 °F - 37.0 °F 42% 29.86 in 10.0 mi SSW 21.9 mph 28.8 mph N/A   Clear
11:53 PM 59.0 °F - 37.9 °F 46% 29.86 in 10.0 mi SSW 17.3 mph 25.3 mph N/A   Clear